Location: Northcutt
(34.7304°N, 84.4305°W)
Time: 19:06:46
(UTC+00:00)

Transit 2A Rocket - Pass Details

Date: 08 October 2022
Orbit: 589 x 911 km, 66.7° (Epoch: 03 December)

Event Time Altitude Azimuth Distance (km) Brightness Sun altitude
Rises 20:39:43 0° 307° (NW) 3,146 8.4 28.6°
Reaches altitude 10° 20:43:21 10° 280° (W) 2,297 8.3 28.0°
Maximum altitude 20:45:38 13° 254° (WSW) 2,142 9.0 27.6°
Drops below altitude 10° 20:48:01 10° 228° (SW) 2,385 9.2 27.2°
Sets 20:51:57 0° 202° (SSW) 3,385 9.1 26.5°
